Skip Page Navigation
NASA JPL Caltech
NASA Logo - Jet Propulsion Laboratory + View the NASA Portal
+ Near-Earth Object (NEO) Program
Search JPL
JPL Home Earth Solar System Stars & Galaxies Technology
JPL Solar System Dynamics
BODIES ORBITS EPHEMERIDES TOOLS PHYSICAL DATA DISCOVERY FAQ SITE MAP
JPL Small-Body Database Browser
Search: [ help ]  
(2005 TF49)
Classification: Apollo [NEO, PHA]          SPK-ID: 3293832
Ephemeris | Orbit Diagram | Orbital Elements | Physical Parameters | Close-Approach Data ]

[ hide orbit diagram ]
Orbit Diagram
Note: Make sure you have Java enabled on your browser to see the applet. This applet is provided as a 3D orbit visualization tool. The applet was implemented using 2-body methods, and hence should not be used for determining accurate long-term trajectories (over several years or decades) or planetary encounter circumstances. For accurate long-term ephemerides, please instead use our Horizons system.
Orbit Viewer

Additional Notes: the orbits shown in the applet are color coded. The planets are white lines, and the asteroid/comet is a blue line. The bright white line indicates the portion of the orbit that is above the ecliptic plane, and the darker portion is below the ecliptic plane. Likewise for the asteroid/comet orbit, the light blue indicates the portion above the ecliptic plane, and the dark blue the portion below the ecliptic plane.

Orbit Viewer applet originally written and kindly provided by Osamu Ajiki (AstroArts), and further modified by Ron Baalke (JPL).


Orbital Elements at Epoch 2456400.5 (2013-Apr-18.0) TDB
Reference: JPL 56 (heliocentric ecliptic J2000)
 Element Value Uncertainty (1-sigma)   Units 
e .02543099898492595 7.165e-09  
a 1.041867079348672 3.5241e-09 AU
q 1.015371358711328 7.6547e-09 AU
i 24.55049984865967 1.1058e-05 deg
node 25.75322036774822 2.3389e-06 deg
peri 302.4081999321761 2.0755e-05 deg
M 91.42801680123044 1.7643e-05 deg
tp 2456301.850770211887
(2013-Jan-09.35077021)
1.8988e-05 JED
period 388.4336986213908
1.06
1.9708e-06
5.396e-09
d
yr
n .9267990940994404 4.7023e-09 deg/d
Q 1.068362799986015 3.6137e-09 AU
  Orbit Determination Parameters
   # obs. used (total)      480  
   # delay obs. used      1  
   # Doppler obs. used      1  
   data-arc span      7012 days (19.20 yr)  
   first obs. used      1989-10-21  
   last obs. used      2009-01-01  
   planetary ephem.      DE405  
   SB-pert. ephem.      SB405-CPV-2  
   condition code      0  
   fit RMS      .54596  
   data source      ORB  
   producer      Otto Matic  
   solution date      2011-Sep-14 20:04:41  

Additional Information
 Earth MOID = .0309663 AU 
 T_jup = 5.808 
[ show covariance matrix ]

Ephemeris | Orbit Diagram | Orbital Elements | Physical Parameters | Close-Approach Data ]

Physical Parameter Table
Parameter Symbol Value Units Sigma Reference Notes
absolute magnitude H 19.047 mag .64732 56 autocmod 2.5a

[ show close-approach data ]
Ephemeris | Orbit Diagram | Orbital Elements | Physical Parameters | Close-Approach Data ]
ABOUT SSD CREDITS/AWARDS PRIVACY/COPYRIGHT GLOSSARY LINKS
FirstGov 2013-May-23 22:50 UT
(server date/time)  
NASA Home Page
Site Manager:   Donald K. Yeomans
Webmaster  Alan B. Chamberlin